User: anonymous   Login
Location: Bruch
(44.2051°N, 0.4120°E)
Time: 22:36:20
(UTC+00:00)
Language:

SJ 16-02 - Orbit

View from above orbital plane
View from above orbital plane
View from above satellite
View from above satellite

Ground track
Ground track

The orbit data is extracted from the following two-line orbital elements,

1 41634U 16043A   21061.51661996  .00000268  00000-0  33919-4 0  9990
2 41634  75.0049 310.1676 0006628  33.9437 326.2178 14.85773864253563
Epoch (UTC): 02 March 2021 12:23:55
Eccentricity: 0.0006628
inclination: 75.0049°
perigee height: 606 km
apogee height: 616 km
right ascension of ascending node: 310.1676°
argument of perigee: 33.9437°
revolutions per day: 14.85773864
mean anomaly at epoch: 326.2178°
orbit number at epoch: 25356

The dashed part of the orbit path shows where the satellite is in the earth's shadow,  

DLR